Location: Key Biscayne
(25.6930°N, 80.1630°W)
Time: 00:18:52
(UTC-05:00)

Vanguard 2 - All Passes

Search period start: 20 January 2018 00:00
Search period end: 30 January 2018 00:00
Orbit: 553 x 2940 km, 32.9° (Epoch: 18 January)

Date Brightness Start Highest point End Pass type
(mag) Time Alt. Az. Time Alt. Az. Time Alt. Az.
20 Jan - 01:25:11 10° SSW 01:30:20 34° SE 01:38:16 10° ENE visible
20 Jan - 03:31:49 10° WSW 03:39:14 80° NNW 03:52:08 10° ENE visible
20 Jan - 05:40:45 10° W 05:51:01 63° N 06:07:14 10° E visible
20 Jan - 07:50:32 10° WNW 08:04:19 79° NNE 08:22:33 10° ESE daylight
20 Jan - 10:01:25 10° WNW 10:17:33 63° SSW 10:34:33 10° SE daylight
20 Jan - 12:16:15 10° W 12:29:21 26° SW 12:41:18 10° S daylight
21 Jan - 01:42:35 10° SW 01:48:04 51° SE 01:57:03 10° ENE visible
21 Jan - 03:50:01 10° W 03:57:38 69° NNW 04:10:46 10° ENE visible
21 Jan - 05:59:05 10° WNW 06:09:42 64° N 06:26:12 10° E visible
21 Jan - 08:08:47 10° WNW 08:22:51 88° NNE 08:41:07 10° ESE daylight
21 Jan - 10:20:01 10° WNW 10:35:44 52° SW 10:52:06 10° SE daylight
21 Jan - 12:37:07 10° W 12:47:19 18° SW 12:56:51 10° S daylight
21 Jan - 23:56:35 10° SSE 23:58:34 12° SE 00:00:48 10° ESE night (unlit)
22 Jan - 02:00:19 10° SW 02:06:00 71° SSE 02:15:38 10° ENE visible
22 Jan - 04:08:18 10° W 04:16:09 62° N 04:29:29 10° ENE visible
22 Jan - 06:17:22 10° WNW 06:28:20 67° NNE 06:45:10 10° E visible
22 Jan - 08:27:04 10° WNW 08:41:17 81° SSW 08:59:27 10° ESE daylight
22 Jan - 10:38:53 10° W 10:53:51 41° SW 11:09:19 10° SSE daylight
22 Jan - 13:00:59 10° WSW 13:05:25 11° SW 13:09:44 10° SSW daylight
23 Jan - 00:12:31 10° S 00:16:08 21° SE 00:20:55 10° E night (unlit)
23 Jan - 02:18:16 10° WSW 02:24:06 87° NNW 02:34:06 10° ENE visible
23 Jan - 04:26:37 10° W 04:34:42 59° N 04:48:19 10° ENE visible
23 Jan - 06:35:37 10° WNW 06:46:53 73° NNE 07:04:04 10° E visible
23 Jan - 08:45:22 10° WNW 08:59:37 69° SSW 09:17:32 10° SE daylight
23 Jan - 10:58:10 10° W 11:11:57 32° SW 11:26:05 10° SSE daylight
24 Jan - 00:29:33 10° SSW 00:33:49 34° SE 00:39:56 10° E night (unlit)
24 Jan - 02:36:24 10° W 02:42:22 71° NNW 02:52:36 10° ENE visible
24 Jan - 04:44:55 10° WNW 04:53:16 59° N 05:07:15 10° E visible
24 Jan - 06:53:48 10° WNW 07:05:23 82° NNE 07:22:49 10° ESE daylight
24 Jan - 09:03:48 10° WNW 09:17:55 57° SSW 09:35:17 10° SE daylight
24 Jan - 11:18:09 10° W 11:30:06 23° SW 11:42:14 10° S daylight
25 Jan - 00:47:05 10° SW 00:51:37 54° SSE 00:58:34 10° ENE night (unlit)
25 Jan - 02:54:38 10° W 03:00:46 60° N 03:11:10 10° ENE visible
25 Jan - 05:03:09 10° WNW 05:11:49 61° N 05:26:14 10° E visible
25 Jan - 07:11:59 10° WNW 07:23:47 87° SSW 07:41:21 10° ESE daylight
25 Jan - 09:22:25 10° WNW 09:36:10 46° SW 09:52:43 10° SSE daylight
25 Jan - 11:39:29 10° WSW 11:48:20 16° SW 11:57:15 10° S daylight
25 Jan - 23:00:31 10° SSE 23:02:07 12° SE 23:03:49 10° ESE night (unlit)
26 Jan - 01:04:55 10° WSW 01:09:37 80° SSE 01:17:00 10° ENE night (unlit)
26 Jan - 03:12:55 10° W 03:19:12 55° N 03:29:51 10° ENE visible
26 Jan - 05:21:21 10° WNW 05:30:18 67° NNE 05:45:11 10° E visible
26 Jan - 07:30:11 10° WNW 07:42:08 75° SSW 07:59:37 10° SE daylight
26 Jan - 09:41:21 10° W 09:54:25 36° SW 10:09:46 10° SSE daylight
26 Jan - 23:16:39 10° SSW 23:19:50 21° SE 23:23:39 10° E night (unlit)
27 Jan - 01:22:58 10° WSW 01:27:45 75° NNW 01:35:23 10° ENE night (unlit)
27 Jan - 03:31:10 10° WNW 03:37:41 53° N 03:48:38 10° ENE visible
27 Jan - 05:39:29 10° WNW 05:48:42 75° NNE 06:04:03 10° ESE visible
27 Jan - 07:48:29 10° WNW 08:00:27 62° SSW 08:17:36 10° SE daylight
27 Jan - 10:00:48 10° W 10:12:42 27° SW 10:26:17 10° SSE daylight
27 Jan - 23:33:52 10° SW 23:37:38 37° SSE 23:42:27 10° E night (unlit)
28 Jan - 01:41:10 10° W 01:46:02 59° NNW 01:53:47 10° ENE visible
28 Jan - 03:49:24 10° WNW 03:56:08 54° N 04:07:31 10° E visible
28 Jan - 05:57:36 10° WNW 06:07:04 86° NNE 06:22:44 10° ESE visible
28 Jan - 08:06:55 10° WNW 08:18:46 50° SSW 08:35:15 10° SE daylight
28 Jan - 10:21:08 10° WSW 10:31:04 19° SW 10:42:01 10° S daylight
28 Jan - 23:51:32 10° SW 23:55:33 62° SSE 00:00:55 10° ENE night (unlit)
29 Jan - 01:59:25 10° W 02:04:23 50° N 02:12:15 10° ENE visible
29 Jan - 04:07:33 10° WNW 04:14:32 59° NNE 04:26:27 10° E visible
29 Jan - 06:15:44 10° WNW 06:25:22 81° SSW 06:41:11 10° ESE visible
29 Jan - 08:25:37 10° W 08:37:07 39° SSW 08:52:31 10° SSE daylight
29 Jan - 10:43:33 10° WSW 10:49:34 13° SW 10:55:54 10° SSW daylight
29 Jan - 22:03:43 10° S 22:05:52 14° SE 22:08:02 10° ESE night (unlit)
